Regional Weather Roundup
Issued by NWS

Home | Current Version | Previous Version | Text Only | Print | Product List | Glossary On
Versions: 1 2 3 4 5 6 7 8 9 10 11 12 13 14 15 16 17 18 19 20 21 22 23 24 25 26 27 28 29 30 31 32 33 34 35 36 37 38 39 40 41 42 43 44 45 46 47 48 49 50
000
ASUS42 KFFC 172010
RWRGA
WEATHER ROUNDUP FOR GEORGIA
NATIONAL WEATHER SERVICE PEACHTREE CITY GA
400 PM EDT TUE OCT 17 2017

NOTE: "FAIR" INDICATES FEW OR NO CLOUDS BELOW 12,000 FEET WITH NO
SIGNIFICANT WEATHER AND/OR OBSTRUCTIONS TO VISIBILITY.

* = USE WITH CAUTION. THE STATIONS MARKED WITH AN ASTERISK MAY NOT
REPORT WEATHER SUCH AS PRECIPITATION, FOG, OR THUNDER AND ARE NOT
QUALITY CONTROLLED BY NWS.

THE REMARK "TC" DENOTES TEMPERATURE READING IN DEGREES CELSIUS.

GAZ001>058-172100-
NORTH GEORGIA

CITY           SKY/WX    TMP DP  RH WIND       PRES   REMARKS
ATLANTA        SUNNY     68  40  35 VRB7      30.25F
ATHENS         SUNNY     69  42  37 VRB6      30.26F
CHAMBLEE       SUNNY     68  39  34 VRB6      30.26F
PEACHTREE CITY SUNNY     69  41  36 NE8       30.26F
ROME           SUNNY     69  44  40 VRB6      30.26F
WEST ATLANTA   SUNNY     69  42  37 E9        30.25F
GAINESVILLE    SUNNY     65  39  38 VRB6      30.28F
CARTERSVILLE   SUNNY     69  42  37 MISG      30.27F


CITY           SKY/WX    TMP DP  RH WIND       PRES   REMARKS
DALTON*        SUNNY     66  45  45 W3        30.28F
LAWRENCEVILLE* SUNNY     67  40  37 CALM      30.27F
MARIETTA       SUNNY     67  40  36 E5        30.26S
KENNESAW*      SUNNY     67  41  38 VRB5      30.27F
CANTON*        SUNNY     70  41  35 CALM      30.28S
$$

GAZ059>098-102>109-172100-
CENTRAL GEORGIA

CITY           SKY/WX    TMP DP  RH WIND       PRES   REMARKS
AUGUSTA-BUSH   SUNNY     72  38  29 E8        30.25S
AUGUSTA-DANIEL SUNNY     71  40  32 NE10      30.26S
COLUMBUS       SUNNY     72  41  32 E10       30.22F
MACON          SUNNY     72  38  29 NE10      30.24S
ROBINS AFB     SUNNY     72  40  31 NE8       30.22F


CITY           SKY/WX    TMP DP  RH WIND       PRES   REMARKS
LAGRANGE*      SUNNY     70  44  38 E6        30.24F
SYLVANIA*      SUNNY     71  43  36 NE12      30.24S
MILLEDGEVILLE* SUNNY     72  43  35 E7        30.25F
$$

GAZ099>101-110>166-172100-
SOUTH GEORGIA

CITY           SKY/WX    TMP DP  RH WIND       PRES   REMARKS
SAVANNAH       CLOUDY    72  43  35 NE14      30.21S
VALDOSTA       CLOUDY    73  53  49 NE9G22    30.15F
ALMA           SUNNY     73  42  32 E9        30.18F
ST SIMONS      CLOUDY    67  55  65 N10G24    30.18F
FT STEWART     CLOUDY    71  43  37 NE13      30.18F
ALBANY         SUNNY     75  42  30 NE9G18    30.20F
HUNTER AFB     MOSUNNY   68  45  42 NE7       30.21S
MOODY AFB      CLOUDY    73  49  43 E10       30.15F
BRUNSWICK      CLOUDY    66  52  59 NE14G21   30.19F


CITY           SKY/WX    TMP DP  RH WIND       PRES   REMARKS
BAINBRIDGE*    SUNNY     77  52  41 NE12G20   30.16F
MOULTRIE*      SUNNY     72  41  33 NE9G17    30.18S
VIDALIA*       SUNNY     72  41  33 NE10G17   30.22S
WAYCROSS*      SUNNY     72  41  32 E10G18    30.18F
DOUGLAS*       SUNNY     72  37  28 NE14      30.20F
$$



USA.gov is the U.S. government's official web portal to all federal, state and local government web resources and services.